Home > Weather > Oral > Past weeks

Flag for Kazakhstan Past Weather in Oral, Kazakhstan — Yesterday and Last 2 Weeks

Now
61 °F

Sunny.


Feels Like: 61 °F
Forecast: 65 / 88 °F
Wind: 1 mph from East

Location: Uralsk

Current Time: Jul 31, 2016 at 6:44:34 AM

Latest Report: Jul 31, 2016 at 6:00 AM


Visibility: 10 mi

Pressure: 29.92 "Hg

Humidity: 94%

Dew Point: 59 °F

Location of OralLocation

Past Weather in Oral — Graph

°F

Oral Temperature Yesterday

Maximum temperature yesterday: 90 °F (at 3:00 PM)
Minimum temperature yesterday: 57 °F (at 5:00 AM)
Average temperature yesterday: 76 °F

High & Low Weather Summary for the Past Weeks

 TemperatureHumidityPressure
High95 °F (Jul 17, 3:30 PM)100% (Jul 22, 11:30 AM)29.98 "Hg (Jul 22, 11:30 AM)
Low55 °F (Jul 27, 6:00 AM)24% (Jul 30, 3:30 PM)29.65 "Hg (Jul 19, 6:30 PM)
Average74 °F64%29.84 "Hg
* Reported Jul 16 5:00 AM — Jul 31 5:30 AM, Oral, Weather by CustomWeather, © 2016

Note: Actual official high and low records may vary slightly from our data, if they occured in-between our weather recording intervals... More about our weather records

Advertising

Oral Weather History for the Previous 24 Hours

Scroll right to see more
 ConditionsComfort  
Time TempWeatherWind HumidityBarometerVisibility
5:30 AM
Sun, Jul 31
61 °FClear.No wind94%29.92 "Hg10 mi
5:00 AM61 °FClear.No wind94%29.92 "Hg10 mi
4:00 AM63 °FClear.3 mph88%29.92 "Hg10 mi
3:00 AM64 °FClear.No wind83%29.92 "Hg10 mi
2:00 AM64 °FClear.No wind88%29.89 "Hg10 mi
1:00 AM66 °FClear.6 mph83%29.89 "Hg10 mi
12:00 AM66 °FClear.3 mph83%29.89 "Hg10 mi
11:00 PM
Sat, Jul 30
70 °FPassing clouds.3 mph73%29.89 "HgN/A
10:00 PM72 °FPassing clouds.3 mph69%29.89 "HgN/A
9:00 PM79 °FPartly sunny.6 mph54%29.86 "HgN/A
8:00 PM84 °FPartly sunny.6 mph37%29.86 "HgN/A
7:30 PM88 °FScattered clouds.3 mph31%29.86 "HgN/A
7:00 PM88 °FScattered clouds.3 mph29%29.86 "HgN/A
6:30 PM88 °FScattered clouds.6 mph29%29.86 "HgN/A
6:00 PM88 °FBroken clouds.3 mph29%29.86 "HgN/A
5:30 PM88 °FBroken clouds.6 mph29%29.86 "HgN/A
5:00 PM90 °FBroken clouds.3 mph29%29.86 "HgN/A
4:30 PM90 °FScattered clouds.6 mph26%29.86 "HgN/A
4:00 PM90 °FScattered clouds.6 mph29%29.86 "HgN/A
3:30 PM90 °FScattered clouds.6 mph24%29.86 "HgN/A
3:00 PM90 °FScattered clouds.3 mph31%29.86 "HgN/A
2:30 PM88 °FSunny.3 mph31%29.86 "Hg10 mi
2:00 PM88 °FSunny.6 mph33%29.86 "Hg10 mi
1:30 PM86 °FSunny.6 mph38%29.89 "Hg10 mi
1:00 PM86 °FSunny.6 mph43%29.89 "Hg10 mi
12:30 PM84 °FSunny.3 mph45%29.89 "Hg10 mi
12:00 PM82 °FPassing clouds.6 mph48%29.89 "HgN/A
11:30 AM82 °FPassing clouds.6 mph48%29.89 "HgN/A
11:00 AM81 °FPassing clouds.6 mph54%29.89 "HgN/A
10:30 AM77 °FPassing clouds.6 mph61%29.89 "HgN/A
10:00 AM75 °FPassing clouds.3 mph69%29.89 "HgN/A
9:30 AM73 °FPassing clouds.3 mph74%29.89 "HgN/A
9:00 AM70 °FClear.6 mph83%29.89 "Hg5 mi
8:30 AM68 °FClear.3 mph83%29.89 "Hg5 mi
8:00 AM64 °FFog.1 mph94%29.89 "Hg3 mi
7:30 AM61 °FFog.1 mph100%29.89 "Hg1 mi
7:00 AM57 °FFog.1 mph100%29.89 "Hg1 mi
6:30 AM57 °FFog.1 mph94%29.89 "Hg2 mi
6:00 AM57 °FFog.1 mph94%29.89 "Hg1 mi
Weather by CustomWeather, © 2016

See weather overviewHow to use our weather pages